Location: Staunton
(38.1490°N, 79.0720°W)
Time: 11:35:20
(UTC-04:00)

ISS - Pass Details

Date: 19 May 2018
Orbit: 402 x 407 km, 51.6° (Epoch: 27 May)

Event Time Altitude Azimuth Distance (km) Brightness Sun altitude
Rises 04:16:51 0° 319° (NW) 2,317 0.1 -17.7°
Reaches altitude 10° 04:19:23 10° 339° (NNW) 1,456 -0.7 -17.4°
Maximum altitude 04:21:44 18° 25° (NNE) 1,060 -0.8 -17.1°
Drops below altitude 10° 04:24:05 10° 72° (ENE) 1,453 0.0 -16.7°
Sets 04:26:36 0° 92° (E) 2,310 0.7 -16.4°
